DW8295 Weather Reports


Display with metric or nautical units.
time (UTC)temp
F
wind
direction
speed
MPH
gust
MPH
rain 1hr
in
rain 24hr
in
rain mn
in
humidity
%
barometer
mb
20260905182638 70 67 1.0 4.0 0.00 0.00 0.00 74 1009.7
20260905182352 70 22 1.0 4.0 0.00 0.00 0.00 75 1009.6
20260905181633 69 64 1.0 4.0 0.00 0.00 0.00 77 1009.7
20260905181130 70 59 1.0 5.0 0.00 0.00 0.00 75 1009.7
20260905180631 70 59 1.0 5.0 0.00 0.00 0.00 75 1009.7
20260905180129 70 22 1.0 6.0 0.00 0.00 0.00 77 1009.7
20260905175627 70 0 1.0 9.0 0.00 0.00 0.00 76 1009.7
20260905175126 70 50 2.0 9.0 0.00 0.00 0.00 75 1009.6
20260905174849 70 92 1.0 8.0 0.00 0.00 0.00 79 1009.7
20260905174126 69 42 1.0 4.0 0.00 0.00 0.00 81 1009.7
20260905173844 69 40 1.0 4.0 0.00 0.00 0.00 84 1009.7
20260905173126 69 40 1.0 4.0 0.00 0.00 0.00 84 1009.7
20260905172626 68 34 0.0 3.0 0.00 0.00 0.00 87 1009.7
20260905172127 67 12 0.0 2.0 0.00 0.00 0.00 87 1009.7
20260905171628 67 12 0.0 2.0 0.00 0.00 0.00 86 1009.8
20260905171126 67 12 0.0 2.0 0.00 0.00 0.00 86 1009.7
20260905170624 67 12 0.0 2.0 0.00 0.00 0.00 87 1009.8
20260905170124 67 11 1.0 4.0 0.00 0.00 0.00 87 1009.8
20260905165624 67 311 0.0 4.0 0.00 0.00 0.00 88 1009.8
20260905165348 66 61 1.0 5.0 0.00 0.00 0.00 88 1009.7
20260905164841 67 64 1.0 5.0 0.00 0.00 0.00 88 1009.9
20260905164111 67 337 0.0 2.0 0.00 0.00 0.00 90 1009.9
20260905163605 66 335 0.0 4.0 0.00 0.00 0.00 91 1009.9
20260905163102 66 335 1.0 4.0 0.00 0.00 0.00 91 1009.6
20260905162820 65 336 0.0 3.0 0.00 0.00 0.00 91 1009.7
20260905162101 65 335 0.0 1.0 0.00 0.00 0.00 90 1010.0
20260905161514 65 335 0.0 2.0 0.00 0.00 0.00 90 1010.0
20260905161008 65 335 1.0 5.0 0.00 0.00 0.00 88 1010.0
20260905160502 66 344 1.0 5.0 0.00 0.00 0.00 87 1010.1
20260905160220 67 45 2.0 9.0 0.00 0.00 0.00 84 1010.1
20260905155451 68 58 1.0 9.0 0.00 0.00 0.00 80 1010.0
20260905155159 70 28 1.0 3.0 0.00 0.00 0.00 77 1009.6
20260905155038 69 327 1.0 4.0 0.00 0.00 0.00 77 1009.8
20260905153933 70 17 1.0 4.0 0.00 0.00 0.00 77 1009.6
20260905153646 70 16 1.0 4.0 0.00 0.00 0.00 76 1009.6
20260905152921 70 348 2.0 10.0 0.00 0.00 0.00 77 1009.6
20260905152414 69 326 2.0 10.0 0.00 0.00 0.00 80 1009.6
20260905151909 68 335 1.0 8.0 0.00 0.00 0.00 81 1009.6
20260905151402 68 321 0.0 4.0 0.00 0.00 0.00 81 1009.7
20260905150856 68 9 0.0 4.0 0.00 0.00 0.00 82 1009.8
20260905150351 68 5 0.0 4.0 0.00 0.00 0.00 81 1009.7
20260905145845 68 34 1.0 3.0 0.00 0.00 0.00 81 1009.7
20260905145339 69 57 1.0 3.0 0.00 0.00 0.00 80 1009.7
20260905144833 68 48 1.0 4.0 0.00 0.00 0.00 82 1009.7
20260905144328 68 44 1.0 8.0 0.00 0.00 0.00 82 1009.6
20260905144045 68 55 1.0 8.0 0.00 0.00 0.00 82 1009.5
20260905143316 67 38 1.0 5.0 0.00 0.00 0.00 83 1009.5
20260905142810 67 342 1.0 5.0 0.00 0.00 0.00 83 1009.5
20260905142305 67 355 1.0 2.0 0.00 0.00 0.00 83 1009.6
20260905142249 67 53 1.0 4.0 0.00 0.00 0.00 83 1009.4
20260905141737 67 57 2.0 5.0 0.00 0.00 0.00 83 1009.4
20260905140745 67 61 2.0 10.0 0.00 0.00 0.00 82 1009.3
20260905140239 67 47 2.0 10.0 0.00 0.00 0.00 82 1009.2
20260905135734 67 57 2.0 10.0 0.00 0.00 0.00 83 1009.2
20260905135227 67 331 3.0 12.0 0.00 0.00 0.00 83 1009.2
20260905134721 67 21 2.0 12.0 0.00 0.00 0.00 83 1009.1
20260905134216 67 35 2.0 14.0 0.00 0.00 0.00 82 1009.1
20260905133709 67 323 4.0 14.0 0.00 0.00 0.00 82 1009.0
20260905133426 67 343 4.0 13.0 0.00 0.00 0.00 82 1008.9
20260905132656 67 339 3.0 13.0 0.00 0.00 0.00 82 1008.9
20260905132153 67 312 3.0 12.0 0.00 0.00 0.00 82 1008.8
20260905131654 67 17 3.0 11.0 0.00 0.00 0.00 82 1008.7
20260905131153 67 346 3.0 11.0 0.00 0.00 0.00 82 1008.5
20260905130655 67 0 3.0 11.0 0.00 0.00 0.00 81 1008.4
20260905130152 67 346 3.0 11.0 0.00 0.00 0.00 82 1008.4
20260905130006 67 5 2.0 12.0 0.00 0.00 0.00 82 1008.2
20260905125858 66 55 2.0 12.0 0.00 0.00 0.00 83 1008.2
20260905124651 66 347 2.0 9.0 0.00 0.00 0.00 83 1008.1
20260905124151 66 28 2.0 10.0 0.00 0.00 0.00 84 1008.1
20260905123650 66 17 2.0 10.0 0.00 0.00 0.00 84 1008.1
20260905123150 65 325 2.0 10.0 0.00 0.00 0.00 85 1008.1
20260905123134 65 329 2.0 8.0 0.00 0.00 0.00 85 1008.1
20260905122149 65 29 2.0 9.0 0.00 0.00 0.00 85 1008.1
20260905121917 65 344 2.0 9.0 0.00 0.00 0.00 85 1008.1
20260905121147 65 5 1.0 9.0 0.00 0.00 0.00 86 1008.1
20260905120645 65 19 1.0 9.0 0.00 0.00 0.00 86 1008.1
20260905120145 64 326 1.0 6.0 0.00 0.00 0.00 86 1008.1
20260905115645 64 338 1.0 7.0 0.00 0.00 0.00 86 1008.1
20260905115144 64 355 1.0 8.0 0.00 0.00 0.00 87 1008.1
20260905114644 64 355 1.0 8.0 0.00 0.00 0.00 87 1008.1
20260905114144 64 350 1.0 6.0 0.00 0.00 0.00 87 1008.1
20260905113902 64 48 1.0 6.0 0.00 0.00 0.00 87 1008.1
20260905113144 64 307 0.0 5.0 0.00 0.00 0.00 87 1008.3
20260905112406 64 338 0.0 4.0 0.00 0.00 0.00 88 1008.3
20260905111906 63 332 0.0 2.0 0.00 0.00 0.00 88 1008.4
20260905111407 63 309 0.0 6.0 0.00 0.00 0.00 89 1008.3
20260905110905 63 309 1.0 6.0 0.00 0.00 0.00 89 1008.2
20260905110404 63 32 1.0 4.0 0.00 0.00 0.00 90 1007.8
20260905105900 63 349 1.0 4.0 0.00 0.00 0.00 90 1008.0
20260905105353 62 339 0.0 3.0 0.00 0.00 0.00 90 1008.0
20260905104848 62 338 0.0 2.0 0.00 0.00 0.00 90 1008.0
20260905104341 62 338 0.0 2.0 0.00 0.00 0.00 90 1008.0
20260905103836 62 337 0.0 2.0 0.00 0.00 0.00 90 1007.9
20260905103329 62 336 0.0 2.0 0.00 0.00 0.00 90 1007.9
20260905102824 62 337 0.0 1.0 0.00 0.00 0.00 90 1007.8
20260905102317 63 336 0.0 1.0 0.00 0.00 0.00 89 1007.8
20260905101811 63 336 0.0 1.0 0.00 0.00 0.00 90 1007.7
20260905101306 63 336 0.0 3.0 0.00 0.00 0.00 90 1007.7
20260905100801 63 336 0.0 3.0 0.00 0.00 0.00 90 1007.7
20260905100253 63 331 0.0 3.0 0.00 0.00 0.00 90 1007.6
20260905095748 62 342 0.0 2.0 0.00 0.00 0.00 91 1007.6
20260905095241 62 342 0.0 2.0 0.00 0.00 0.00 91 1007.6
20260905094735 62 341 0.0 1.0 0.00 0.00 0.00 92 1007.6
20260905094230 62 341 0.0 1.0 0.00 0.00 0.00 93 1007.5
20260905093945 61 340 0.0 1.0 0.00 0.00 0.00 93 1007.4
20260905093217 61 340 0.0 0.0 0.00 0.00 0.00 93 1007.4
20260905092711 61 340 0.0 1.0 0.00 0.00 0.00 93 1007.4
20260905092206 61 340 0.0 2.0 0.00 0.00 0.00 93 1007.3
20260905091659 61 340 0.0 2.0 0.00 0.00 0.00 93 1007.3
20260905091154 61 340 0.0 0.0 0.00 0.00 0.00 92 1007.3
20260905090911 61 340 0.0 0.0 0.00 0.00 0.00 92 1007.4
20260905090142 61 340 0.0 0.0 0.00 0.00 0.00 92 1007.4
20260905090114 61 340 0.0 0.0 0.00 0.00 0.00 92 1007.3
20260905085129 61 340 0.0 0.0 0.00 0.00 0.00 92 1007.3
20260905084629 62 340 0.0 0.0 0.00 0.00 0.00 92 1007.2
20260905084129 62 340 0.0 0.0 0.00 0.00 0.00 92 1007.1
20260905083625 62 340 0.0 0.0 0.00 0.00 0.00 92 1007.1
20260905083124 62 340 0.0 0.0 0.00 0.00 0.00 92 1007.2
20260905082621 61 340 0.0 0.0 0.00 0.00 0.00 92 1007.1
20260905082121 61 340 0.0 0.0 0.00 0.00 0.00 92 1007.1
20260905081623 62 340 0.0 0.0 0.00 0.00 0.00 92 1007.0
20260905081559 62 340 0.0 0.0 0.00 0.00 0.00 92 1007.0
20260905080619 62 340 0.0 0.0 0.00 0.00 0.00 92 1007.0
20260905080341 62 340 0.0 1.0 0.00 0.00 0.00 92 1007.0
20260905075619 62 340 0.0 1.0 0.00 0.00 0.00 92 1006.8
20260905075118 62 338 0.0 1.0 0.00 0.00 0.00 92 1006.7
20260905074615 62 338 0.0 2.0 0.00 0.00 0.00 92 1006.7
20260905074113 61 338 0.0 2.0 0.00 0.00 0.00 92 1006.7
20260905073611 61 337 0.0 2.0 0.00 0.00 0.00 92 1006.7
20260905073109 61 337 0.0 2.0 0.00 0.00 0.00 92 1006.7
20260905072608 61 16 0.0 2.0 0.00 0.00 0.00 92 1006.7
20260905072329 61 339 0.0 0.0 0.00 0.00 0.00 92 1006.7
20260905071830 62 339 0.0 0.0 0.00 0.00 0.00 92 1006.7
20260905071106 62 339 0.0 0.0 0.00 0.00 0.00 92 1006.7
20260905070600 62 339 0.0 1.0 0.00 0.00 0.00 92 1006.9
20260905070052 62 339 0.0 1.0 0.00 0.00 0.00 92 1006.9
20260905065545 62 340 0.0 1.0 0.00 0.00 0.00 92 1007.0
20260905065039 62 340 0.0 2.0 0.00 0.00 0.00 92 1007.0
20260905064535 62 340 0.0 2.0 0.00 0.00 0.00 93 1007.0
20260905064028 62 342 0.0 2.0 0.00 0.00 0.00 93 1007.0
20260905063521 62 343 0.0 2.0 0.00 0.00 0.00 92 1007.0
20260905063237 62 342 0.0 1.0 0.00 0.00 0.00 92 1006.9
20260905062509 62 342 0.0 1.0 0.00 0.00 0.00 92 1006.9
20260905062003 62 342 0.0 0.0 0.00 0.00 0.00 92 1006.9
20260905061457 62 342 0.0 1.0 0.00 0.00 0.00 92 1006.9
20260905060957 62 342 0.0 2.0 0.00 0.00 0.00 92 1006.9
20260905060942 62 342 0.0 2.0 0.00 0.00 0.00 93 1006.9
20260905055957 62 355 0.0 1.0 0.00 0.00 0.00 93 1007.0
20260905055453 62 355 0.0 1.0 0.00 0.00 0.00 92 1007.0
20260905054954 62 355 0.0 1.0 0.00 0.00 0.00 92 1007.0
20260905054453 62 344 0.0 1.0 0.00 0.00 0.00 92 1007.0
20260905053953 62 344 0.0 2.0 0.00 0.00 0.00 93 1007.0
20260905053455 61 342 0.0 2.0 0.00 0.00 0.00 92 1007.1
20260905052953 62 317 0.0 0.0 0.00 0.00 0.00 92 1007.0
20260905052453 62 317 0.0 1.0 0.00 0.00 0.00 92 1007.0
20260905051953 62 317 0.0 1.0 0.00 0.00 0.00 92 1006.9
20260905051935 62 316 0.0 0.0 0.00 0.00 0.00 92 1007.1
20260905050950 62 316 0.0 0.0 0.00 0.00 0.00 92 1007.1
20260905050931 62 316 0.0 0.0 0.00 0.00 0.00 92 1007.1
20260905045950 62 316 0.0 0.0 0.00 0.00 0.00 92 1007.1
20260905045449 62 316 0.0 0.0 0.00 0.00 0.00 92 1007.1
20260905045209 62 316 0.0 0.0 0.00 0.00 0.00 91 1007.1
20260905044918 63 316 0.0 0.0 0.00 0.00 0.00 91 1007.1
20260905044541 63 316 0.0 0.0 0.00 0.00 0.00 91 1007.2
20260905043449 63 316 0.0 0.0 0.00 0.00 0.00 91 1007.1
20260905043208 63 316 0.0 0.0 0.00 0.00 0.00 91 1007.1
20260905042702 63 316 0.0 0.0 0.00 0.00 0.00 90 1007.1
20260905042425 63 316 0.0 0.0 0.00 0.00 0.00 91 1007.1
20260905041705 63 316 0.0 0.0 0.00 0.00 0.00 90 1007.1
20260905040946 63 316 0.0 0.0 0.00 0.00 0.00 90 1007.2
20260905040446 64 316 0.0 0.0 0.00 0.00 0.00 90 1007.1
20260905040206 64 316 0.0 0.0 0.00 0.00 0.00 89 1007.2
20260905035446 64 316 0.0 0.0 0.00 0.00 0.00 89 1007.2
20260905034945 64 316 0.0 0.0 0.00 0.00 0.00 89 1007.1
20260905034439 64 316 0.0 0.0 0.00 0.00 0.00 89 1007.1
20260905034200 64 316 0.0 0.0 0.00 0.00 0.00 88 1007.1
20260905033437 64 316 0.0 1.0 0.00 0.00 0.00 88 1007.0
20260905032935 65 316 0.0 1.0 0.00 0.00 0.00 88 1007.0
20260905032435 65 315 0.0 0.0 0.00 0.00 0.00 87 1007.0
20260905031934 65 314 0.0 0.0 0.00 0.00 0.00 87 1007.1
20260905031434 66 314 0.0 0.0 0.00 0.00 0.00 87 1007.1
20260905030935 66 314 0.0 0.0 0.00 0.00 0.00 86 1007.1
20260905030435 66 314 0.0 0.0 0.00 0.00 0.00 86 1007.2
20260905030152 67 314 0.0 1.0 0.00 0.00 0.00 85 1007.2
20260905025429 67 314 0.0 1.0 0.00 0.00 0.00 85 1007.2
20260905025148 67 308 0.0 0.0 0.00 0.00 0.00 84 1007.2
20260905024430 67 308 0.0 0.0 0.00 0.00 0.00 84 1007.3
20260905023927 67 308 0.0 0.0 0.00 0.00 0.00 83 1007.2
20260905023425 68 308 0.0 0.0 0.00 0.00 0.00 82 1007.3
20260905022924 68 308 0.0 1.0 0.00 0.00 0.00 82 1007.3
20260905022425 68 308 0.0 1.0 0.00 0.00 0.00 81 1007.4
20260905022149 68 308 0.0 4.0 0.00 0.00 0.00 81 1007.4
20260905021648 69 308 0.0 4.0 0.00 0.00 0.00 80 1007.4
20260905020919 69 340 0.0 1.0 0.00 0.00 0.00 80 1007.5
20260905020854 69 340 0.0 1.0 0.00 0.00 0.00 80 1007.5
20260905015908 69 340 0.0 2.0 0.00 0.00 0.00 80 1007.4
20260905015401 69 340 0.0 2.0 0.00 0.00 0.00 80 1007.4
20260905015346 69 338 0.0 1.0 0.00 0.00 0.00 79 1007.4
20260905014349 70 338 0.0 1.0 0.00 0.00 0.00 77 1007.4
20260905013845 70 333 0.0 2.0 0.00 0.00 0.00 77 1007.4
20260905013337 70 333 0.0 2.0 0.00 0.00 0.00 75 1007.3
20260905012833 70 330 0.0 1.0 0.00 0.00 0.00 75 1007.4
20260905012326 70 329 0.0 2.0 0.00 0.00 0.00 75 1007.4
20260905011820 70 329 0.0 2.0 0.00 0.00 0.00 74 1007.4
20260905011313 70 329 0.0 2.0 0.00 0.00 0.00 75 1007.4
20260905010808 70 329 0.0 2.0 0.00 0.00 0.00 76 1007.4
20260905010302 70 329 0.0 1.0 0.00 0.00 0.00 76 1007.5
20260905005755 70 329 0.0 1.0 0.00 0.00 0.00 77 1007.5
20260905005250 71 329 0.0 0.0 0.00 0.00 0.00 78 1007.5
20260905004743 71 329 0.0 0.0 0.00 0.00 0.00 78 1007.5
20260905004238 71 329 0.0 0.0 0.00 0.00 0.00 76 1007.5
20260905003732 72 329 0.0 0.0 0.00 0.00 0.00 73 1007.5
20260905003450 72 329 0.0 1.0 0.00 0.00 0.00 73 1007.6
20260905002719 72 329 0.0 3.0 0.00 0.00 0.00 71 1007.6
20260905002213 72 329 0.0 3.0 0.00 0.00 0.00 70 1007.5
20260905001708 72 334 0.0 4.0 0.00 0.00 0.00 69 1007.5
20260905001201 72 324 0.0 5.0 0.00 0.00 0.00 69 1007.4
20260905000656 72 355 0.0 5.0 0.00 0.00 0.00 69 1007.4
20260905000149 72 327 0.0 5.0 0.00 0.00 0.00 71 1007.4
20260904235644 72 350 0.0 5.0 0.00 0.00 0.00 69 1007.2
20260904235405 72 350 1.0 4.0 0.00 0.00 0.00 70 1007.2
20260904234633 73 340 1.0 4.0 0.00 0.00 0.00 70 1007.2
20260904234125 73 0 0.0 4.0 0.00 0.00 0.00 69 1007.1
20260904233620 73 355 0.0 4.0 0.00 0.00 0.00 69 1007.1
20260904233113 73 355 0.0 6.0 0.00 0.00 0.00 68 1007.0
20260904232607 73 18 0.0 6.0 0.00 0.00 0.00 67 1007.0
20260904232547 74 344 0.0 2.0 0.00 0.00 0.00 66 1006.9
20260904231555 74 342 0.0 3.0 0.00 0.00 0.00 67 1006.8
20260904231310 73 0 0.0 3.0 0.00 0.00 0.00 66 1006.9
20260904230544 73 329 0.0 6.0 0.00 0.00 0.00 67 1006.9
20260904230037 73 329 0.0 6.0 0.00 0.00 0.00 67 1006.9
20260904225531 72 5 0.0 3.0 0.00 0.00 0.00 70 1006.9
20260904225026 72 326 1.0 8.0 0.00 0.00 0.00 73 1006.9
20260904224520 71 327 0.0 8.0 0.00 0.00 0.00 76 1006.8
20260904224019 70 323 0.0 5.0 0.00 0.00 0.00 86 1006.7
20260904223507 70 211 0.0 0.0 0.00 0.00 0.00 88 1006.8
20260904223001 71 211 0.0 0.0 0.00 0.00 0.00 87 1006.8
20260904222455 71 211 0.0 0.0 0.00 0.00 0.00 87 1006.9
20260904221950 71 211 0.0 0.0 0.00 0.00 0.00 87 1006.9
20260904221443 71 211 0.0 0.0 0.00 0.00 0.00 87 1007.0
20260904220937 71 211 0.0 0.0 0.00 0.00 0.00 86 1007.0
20260904220432 72 211 0.0 0.0 0.00 0.00 0.00 86 1007.0
20260904215926 72 211 0.0 0.0 0.00 0.00 0.00 86 1007.0
20260904215639 72 211 0.0 0.0 0.00 0.00 0.00 85 1006.9
20260904214919 72 223 0.0 2.0 0.00 0.00 0.00 85 1006.7
20260904214418 72 223 0.0 3.0 0.00 0.00 0.00 86 1006.8
20260904213916 72 169 0.0 3.0 0.00 0.00 0.00 85 1006.8
20260904213415 72 194 0.0 2.0 0.00 0.00 0.00 85 1006.9
20260904212912 72 194 0.0 1.0 0.00 0.00 0.00 86 1006.9
20260904212411 72 194 0.0 1.0 0.00 0.00 0.00 86 1006.9
20260904211909 72 194 0.0 1.0 0.00 0.00 0.00 85 1006.9
20260904211407 73 194 0.0 1.0 0.00 0.00 0.00 85 1006.9
20260904210904 73 194 0.0 1.0 0.00 0.00 0.00 85 1007.0
20260904210402 73 196 0.0 2.0 0.00 0.00 0.00 86 1006.9
20260904205900 72 196 0.0 2.0 0.00 0.00 0.00 87 1006.8
20260904205401 72 196 0.0 2.0 0.00 0.00 0.00 88 1006.9
20260904204902 71 199 0.0 6.0 0.00 0.00 0.00 88 1006.8
20260904204400 71 200 1.0 6.0 0.00 0.00 0.00 88 1006.8
20260904203901 71 205 1.0 5.0 0.00 0.00 0.00 88 1006.9
20260904203358 71 223 0.0 4.0 0.00 0.00 0.00 88 1006.9
20260904202857 72 209 0.0 7.0 0.00 0.00 0.00 88 1006.7
20260904202357 72 209 0.0 7.0 0.00 0.00 0.00 86 1006.7
20260904201856 73 208 0.0 2.0 0.00 0.00 0.00 86 1006.8
20260904201356 74 207 0.0 0.0 0.00 0.00 0.00 86 1006.8
20260904200851 74 207 0.0 0.0 0.00 0.00 0.00 86 1006.8
20260904200346 74 207 0.0 0.0 0.00 0.00 0.00 85 1006.8
20260904200056 74 207 0.0 0.0 0.00 0.00 0.00 84 1006.9
20260904195333 74 207 0.0 0.0 0.00 0.00 0.00 84 1007.0
20260904194828 74 207 0.0 0.0 0.00 0.00 0.00 84 1006.9
20260904194321 74 207 0.0 0.0 0.00 0.00 0.00 84 1006.9
20260904193815 74 207 0.0 0.0 0.00 0.00 0.00 85 1006.8
20260904193308 74 207 0.0 1.0 0.00 0.00 0.00 85 1006.8
20260904192802 73 207 0.0 5.0 0.00 0.00 0.00 86 1006.7
20260904192258 73 157 0.0 3.0 0.00 0.00 0.00 87 1006.7
20260904192010 73 215 0.0 5.0 0.00 0.00 0.00 86 1006.8
20260904191244 72 168 0.0 5.0 0.00 0.00 0.00 86 1007.1
20260904190743 72 172 0.0 4.0 0.00 0.00 0.00 86 1007.2
20260904190242 72 280 0.0 5.0 0.00 0.00 0.00 86 1007.3
20260904190227 72 246 0.0 5.0 0.00 0.00 0.00 88 1007.3
20260904185245 71 257 0.0 1.0 0.00 0.00 0.00 88 1007.4
20260904184740 70 190 0.0 1.0 0.00 0.00 0.00 89 1007.2
20260904184459 70 232 0.0 2.0 0.00 0.00 0.00 90 1007.2
20260904183741 70 235 0.0 3.0 0.00 0.00 0.00 89 1007.3
20260904183707 70 246 0.0 5.0 0.00 0.00 0.00 88 1007.3
20260904183327 70 227 0.0 5.0 0.00 0.00 0.00 88 1007.4